Simultaneous Nadir Overpasses (SNOs) Predictions

Prediction of SNOs between METOP-A and NOAA-19 Satellite Orbit:

Table of predicted SNOs for the next 14.0 days since TLE Epoch: 10/6/2013
Index Date (METOP-A) Time (METOP-A) Lat,Lon (METOP-A) SZA (METOP-A ) Date (NOAA-19) Time (NOAA-19) Lat,Lon (NOAA-19) SZA (NOAA-19 ) Distance(km) Time Diff (sec)
1 10/07/2013 07:25:24 73.95, 62.97 79.47 10/07/2013 07:24:13 73.97, 61.49 79.52 45.69 71
2 10/07/2013 08:16:12 -73.62,-130.47 100.83 10/07/2013 08:15:04 -73.64,-130.44 100.82 1.63 68
3 10/07/2013 09:06:52 73.63, 36.88 79.19 10/07/2013 09:06:10 73.61, 36.85 79.17 2.40 42
4 10/07/2013 09:57:34 -73.60,-155.85 100.82 10/07/2013 09:57:08 -73.62,-155.91 100.81 2.42 26
5 10/07/2013 10:48:15 73.56, 11.38 79.15 10/07/2013 10:48:14 73.59, 11.37 79.18 3.69 1
6 10/07/2013 11:38:57 -73.54, 178.65 100.86 10/07/2013 11:39:11 -73.55, 178.73 100.85 3.22 14
7 10/07/2013 12:29:37 73.54, -14.01 79.16 10/07/2013 12:30:17 73.53, -13.99 79.14 1.54 40
8 10/07/2013 13:20:19 -73.52, 153.26 100.86 10/07/2013 13:21:15 -73.54, 153.25 100.84 2.32 56
9 10/07/2013 14:11:05 73.22, -40.07 78.88 10/07/2013 14:12:16 73.26, -38.89 78.90 38.15 71
10 10/17/2013 09:50:32 -73.82,-153.60 96.88 10/17/2013 09:49:19 -73.87,-154.48 96.82 27.50 73
11 10/17/2013 10:41:15 73.66, 13.34 82.98 10/17/2013 10:40:18 73.64, 13.33 82.96 2.73 57
12 10/17/2013 11:31:58 -73.60,-179.46 97.07 10/17/2013 11:31:18 -73.61,-179.36 97.06 3.02 40
13 10/17/2013 12:22:38 73.59, -12.16 82.94 10/17/2013 12:22:22 73.62, -12.15 82.97 3.48 16
14 10/17/2013 13:13:20 -73.58, 155.16 97.06 10/17/2013 13:13:22 -73.60, 155.16 97.05 1.21 2
15 10/17/2013 14:04:00 73.57, -37.54 82.94 10/17/2013 14:04:25 73.56, -37.51 82.93 1.68 25
16 10/17/2013 14:54:42 -73.56, 129.77 97.05 10/17/2013 14:55:26 -73.58, 129.68 97.04 3.44 44
17 10/17/2013 15:45:22 73.55, -62.93 82.95 10/17/2013 15:46:29 73.54, -63.00 82.94 2.19 67
18 10/17/2013 16:36:12 -73.14, 103.49 97.44 10/17/2013 16:37:22 -73.17, 105.11 97.43 52.11 70




NCC Satellite Simultaneous Nadir Overpasses (
